Simultaneous Nadir Overpasses (SNOs) Predictions

Prediction of SNOs between GOES-17 and METOP-B Satellite Orbit:

Table of predicted SNOs for the next 14.0 days since TLE Epoch: 11/2/2024
Index Date Time (GOES-17) GOES-17 Lat,Lon METOP-B Lat,Lon Distance(km) Time Diff (sec)
1 11/03/2024 04:34:55 0.01,-104.66 -0.95,-109.01 495.67 80
2 11/04/2024 04:11:31 -0.02,-104.65 0.13,-104.00 74.82 80
3 11/05/2024 16:30:15 0.03,-104.70 0.90,-108.54 438.51 80
4 11/06/2024 16:12:11 0.04,-104.69 -0.19,-103.53 131.46 80
5 11/08/2024 04:31:04 -0.04,-104.63 -0.81,-108.12 397.43 80
6 11/09/2024 04:07:40 -0.04,-104.62 0.29,-103.11 172.27 80
7 11/10/2024 16:26:24 0.05,-104.66 0.70,-107.66 341.07 80
8 11/11/2024 16:08:19 0.05,-104.66 -0.42,-102.65 229.19 80
9 11/13/2024 04:27:11 -0.05,-104.60 -0.66,-107.22 298.88 80
10 11/14/2024 04:03:46 -0.05,-104.60 0.48,-102.22 271.05 80
11 11/15/2024 16:22:30 0.05,-104.63 0.53,-106.76 242.60 80
